Location: Proctor
(47.8934°N, 114.3048°W)
Time: 11:45:29
(UTC+00:00)

AO-91 - Pass Details

Date: 05 July 2022
Orbit: 450 x 797 km, 97.7° (Epoch: 11 August)

Event Time Altitude Azimuth Distance (km) Brightness Sun altitude
Rises 05:23:41 0° 32° (NNE) 2,485 ? -12.8°
Reaches altitude 10° 05:26:38 10° 61° (ENE) 1,591 ? -13.1°
Maximum altitude 05:28:19 13° 91° (E) 1,403 ? -13.2°
Enters shadow 05:28:45 13° 100° (E) 1,416 ? -13.3°
